User: anonymous   Login
Location: Unspecified
(0.0000°N, 0.0000°E)
Time: 15:34:31
(UTC+00:00)
Language:

FALCON 9 R/B - Orbit

View from above orbital plane
View from above orbital plane
View from above satellite
View from above satellite

Ground track
Ground track

The orbit data is extracted from the following two-line orbital elements,

1 37253U 10066K   15117.10509408  .00012121  00000-0  99989-3 0  9999
2 37253 034.5344 070.3285 4329800 318.6342 015.5874 06.82084196106835
Epoch (UTC): 27 April 2015 02:31:20
Eccentricity: 0.4329800
inclination: 34.5344°
perigee height: 281 km
apogee height: 10452 km
right ascension of ascending node: 70.3285°
argument of perigee: 318.6342°
revolutions per day: 6.82084196
mean anomaly at epoch: 15.5874°
orbit number at epoch: 10683

The dashed part of the orbit path shows where the satellite is in the earth's shadow,  

DLR